Location: Amberg
(48.0613°N, 10.6820°E)
Time: 20:06:11
(UTC+00:00)

Daily predictions for brighter satellites

Satellite Brightness Start Highest point End
(mag) Time Altitude Azimuth Time Altitude Azimuth Time Altitude Azimuth
SL-08 R/B 4.4 16:03:57 10° S 16:10:00 75° E 16:16:05 10° NNE
USA 215 3.3 16:03:55 10° ESE 16:10:26 76° NNE 16:16:59 10° NW
Cosmos 1975 Rocket 3.3 16:06:20 10° N 16:10:35 49° ENE 16:14:49 10° SSE
ARIANE 5 R/B 2.8 16:06:11 10° SE 16:10:51 43° ENE 16:15:36 10° N
ATLAS 5 CENTAUR R/B 2.3 16:09:00 10° NW 16:13:20 66° SW 16:18:44 10° SSE
Cosmos 1802 Rocket 4.4 16:11:25 10° SSW 16:17:50 74° W 16:24:16 10° N
Cosmos 2344 4.3 16:11:22 10° NW 16:18:15 36° NNE 16:26:41 10° E
Iridium 4 Rocket 4.0 16:14:29 10° SSW 16:19:26 60° W 16:24:00 10° N
SAR-Lupe-4 3.8 16:16:28 10° SE 16:19:53 45° ENE 16:23:20 10° N
ISS -3.5 16:24:48 10° SW 16:28:06 61° SSE 16:30:57 13° ENE
CZ-2D R/B 3.0 16:26:09 10° SE 16:29:10 44° ENE 16:32:12 10° N
Cosmos 407 Rocket 3.6 16:25:28 10° S 16:30:29 54° ESE 16:35:30 10° NNE
COSMOS 2406 4.1 16:25:41 10° NNW 16:30:31 28° NE 16:35:21 10° ESE
Cosmos 1833 Rocket 3.7 16:25:04 10° NW 16:30:32 52° WSW 16:35:59 10° S
Cosmos 1484 Rocket 4.0 16:28:02 10° S 16:31:22 41° W 16:34:45 10° NNW
Cosmos 2016 Rocket 4.4 16:25:28 10° SSW 16:31:44 69° W 16:38:08 10° N
Cosmos 1812 3.2 16:30:01 10° SSE 16:32:23 23° E 16:34:33 11° NE
IRS-P3 4.3 16:29:11 10° SE 16:34:18 51° ENE 16:39:28 10° N
TIMED 4.5 16:30:26 10° SSW 16:34:42 88° WNW 16:38:59 10° NNE
Tsikada Rocket 4.3 16:29:20 10° NNW 16:35:46 78° W 16:42:06 10° S
ERS-1 4.5 16:34:25 10° SSE 16:39:30 63° ENE 16:44:33 10° N
SMAP 3.1 16:36:48 10° SSE 16:41:28 88° WSW 16:46:09 10° NNW
Cosmos 44 Rocket 3.5 16:38:53 10° SSW 16:43:29 51° ESE 16:47:38 13° NE
Cosmos 540 Rocket 3.4 16:39:58 10° NNW 16:45:08 78° ENE 16:50:15 10° SSE
SJ 16-02 2.4 16:42:08 10° SSE 16:45:38 25° E 16:47:54 16° ENE
SPOT 1/Viking Rocket 4.0 16:41:28 10° SE 16:46:14 39° ENE 16:51:02 10° N
Cosmos 1869 2.9 16:43:52 10° S 16:47:21 69° E 16:50:51 10° NNE
YAOGAN 1 3.5 16:44:36 10° ESE 16:48:08 26° ENE 16:51:40 10° N
SL-16 R/B 3.4 16:46:42 10° N 16:52:46 53° WNW 16:58:46 10° SW
Cosmos 1763 Rocket 3.6 16:48:20 10° NNW 16:53:35 78° WSW 16:58:42 10° SSE
Landsat 7 3.7 16:48:58 10° SSE 16:53:37 89° E 16:58:19 10° NNW
Spot 4 Rocket 4.4 16:52:27 10° SE 16:57:11 40° ENE 17:01:57 10° N
Nadezhda 4 Rocket 4.2 16:52:50 10° N 16:58:54 48° ENE 17:04:53 10° SSE
RESURS DK-1 2.7 16:55:20 10° NW 16:59:19 66° WSW 17:03:16 10° SSE
Timation 1 Rocket 4.4 16:53:22 10° NNW 16:59:21 81° WSW 17:05:18 10° SSE
Cosmos 1140 Rocket 4.4 16:54:38 10° SW 16:59:38 49° WNW 17:04:39 10° NNE
Aureole 3 Rocket 2.2 16:57:24 10° S 17:00:22 59° E 17:03:36 10° NNE
CZ-4C R/B 3.9 16:58:17 10° WNW 17:02:13 22° NNW 17:06:52 10° NE
Resurs 1-3 4.2 16:58:33 10° SE 17:02:23 33° ENE 17:06:15 10° N
CZ-4 R/B 4.3 17:01:38 10° SSE 17:05:30 55° ENE 17:09:24 10° N
SJ-6F 4.2 17:01:39 10° SSE 17:05:33 88° E 17:09:30 10° NNW
UNK 4.4 17:01:19 10° N 17:05:52 57° WNW 17:10:22 10° SSW
Cosmos 304 Rocket 4.3 17:04:17 10° SSE 17:08:32 35° ESE 17:10:27 25° ENE
Cosmos 1400 Rocket 3.1 17:06:15 10° SSE 17:09:48 38° E 17:11:07 28° NE
SJ-12 4.4 17:06:19 10° S 17:10:03 57° W 17:13:49 10° NNW
Cosmos 371 Rocket 3.9 17:05:52 10° SSE 17:10:11 35° ESE 17:12:04 25° ENE
Cosmos 1536 Rocket 3.6 17:08:07 10° N 17:12:30 57° ENE 17:16:49 10° SSE
Helios 1A Rocket 3.4 17:16:47 29° SE 17:16:47 29° SE 17:19:10 10° SSE
Okean 2 Rocket 3.3 17:12:57 10° SSE 17:17:08 46° E 17:20:03 18° NNE
Cosmos 489 Rocket 4.4 17:13:11 10° NNW 17:19:26 66° ENE 17:25:36 10° SSE
NOAA 6 4.2 17:20:28 10° SE 17:25:21 47° ENE 17:30:16 10° N
SL-12 R/B(2) 4.4 17:18:48 10° SW 17:26:51 81° NW 17:35:47 14° NE
Geosat 4.4 17:25:23 32° E 17:26:52 41° NE 17:31:33 10° NNW
Resurs 01 Rocket 3.4 17:30:11 18° NNE 17:30:11 18° NNE 17:31:37 10° N
COSMO-SKYMED 1 2.6 17:26:49 37° NE 17:28:00 49° E 17:32:00 10° S
Cosmos 1943 Rocket 2.5 17:24:36 10° SW 17:30:10 64° WNW 17:35:17 12° NNE
Cosmos 2251 Rocket 3.6 17:28:44 10° SSW 17:34:01 82° WNW 17:38:36 14° NNE
Cosmos 841 Rocket 3.4 17:29:08 10° NNW 17:34:23 66° ENE 17:38:54 14° SSE
Cosmos 2058 3.3 17:30:30 10° NNW 17:34:25 59° W 17:38:19 10° S
SJ-7 3.9 17:31:55 10° SSE 17:35:35 79° ENE 17:39:17 10° N
BREEZE-M DEB (TANK) 2.5 17:35:23 10° W 17:38:08 85° NNW 17:39:49 41° ENE
Cosmos 2082 Rocket 2.5 17:33:59 10° NNW 17:39:33 65° WSW 17:45:06 10° SSE
ATLAS 2AS CENTAUR R/B 3.1 17:34:04 10° NW 17:40:29 42° NE 17:42:14 35° ENE
Cosmos 1346 Rocket 4.5 17:37:28 10° N 17:38:39 19° N 17:38:39 19° N
IRAS Rocket 4.2 17:37:01 10° SSE 17:42:36 88° WSW 17:48:10 10° NNW
Cosmos 2278 Rocket 2.8 17:38:11 10° SW 17:43:42 54° WNW 17:48:32 14° NNE
MOS 1 Rocket 4.2 17:40:48 10° S 17:44:57 47° W 17:49:20 10° NNW
Cosmos 1464 Rocket 4.1 17:43:28 10° SSW 17:49:46 78° W 17:56:02 10° N
Cosmos 1634 Rocket 4.3 17:44:27 10° SSE 17:57:51 - NNE 17:50:01 42° E
CZ-2D R/B 4.1 17:46:35 10° S 17:50:40 57° W 17:54:51 10° NNW
Meteor 2-1 Rocket 4.2 17:45:37 10° S 17:51:27 65° E 17:57:21 10° NNE
Cosmos 2369 Rocket 3.8 17:48:16 10° SSE 17:50:08 19° SSE 17:50:08 19° SSE
USA 215 4.4 17:47:41 10° SSE 17:53:46 41° SW 17:59:54 10° WNW
PSLV R/B 3.6 17:52:25 10° S 17:56:27 69° WSW 18:00:29 10° NNW
Cosmos 1862 4.3 17:53:21 10° NNW 17:56:47 41° W 18:00:13 10° SSW
Cosmos 2151 Rocket 4.4 17:56:04 10° SSW 18:00:26 52° WNW 18:04:52 10° N
Cosmos 2034 Rocket 3.9 17:57:28 10° S 18:03:41 89° W 18:10:00 10° N
Cosmos 676 Rocket 4.0 17:59:37 10° SSW 18:04:56 85° WNW 18:06:42 44° NNE
ISS -2.1 18:01:42 10° W 18:03:52 33° WNW 18:03:52 33° WNW
Okean 1 Rocket 3.3 18:02:42 10° SSW 18:07:04 67° W 18:08:25 42° NNW
Cosmos 1656 Rocket 3.5 18:02:06 10° SSW 18:07:37 71° ESE 18:08:00 69° E
USA 281 3.2 18:11:28 54° ENE 18:11:47 54° NE 18:18:10 10° NNW
Sich 1 Rocket 4.1 18:08:22 10° SSW 18:12:50 59° WNW 18:14:56 30° N
Cosmos 1932 4.4 18:08:46 10° SSW 18:15:08 81° SE 18:16:22 60° NE
COSMOS 2406 3.6 18:09:37 10° NNW 18:15:15 63° WSW 18:19:01 21° S
Cosmos 1092 Rocket 3.8 18:10:42 10° N 18:16:59 87° E 18:23:10 10° S
BlueWalker 3 4.3 18:14:48 10° SW 18:15:40 16° SSW 18:15:40 16° SSW
Cosmos 2026 Rocket 4.0 18:15:51 10° NNW 18:21:57 78° W 18:28:06 10° S
Cosmos 968 Rocket 4.5 18:17:28 10° SSW 18:20:21 34° S 18:20:21 34° S
SJ 16-02 2.6 18:19:35 10° SW 18:23:35 37° WNW 18:24:29 33° NW
YAOGAN 1 4.0 18:19:55 10° SSW 18:23:50 35° W 18:27:47 10° NNW
Cosmos 2344 3.9 18:25:35 10° NW 18:33:36 85° SW 18:38:34 36° SSE
Meteor 2-3 Rocket 4.5 18:32:20 10° NNW 18:37:51 51° W 18:43:14 10° SSW
CZ-4C R/B 4.2 18:48:19 10° NW 18:51:49 20° N 18:51:49 20° N
Resurs 01 Rocket 4.4 19:07:37 13° NNW 19:07:37 13° NNW 19:08:11 10° NNW
ATLAS 2AS CENTAUR R/B 3.6 19:25:03 10° NW 19:29:41 43° WNW 19:29:41 43° WNW
